User: anonymous   Login
Location: Cluny
(50.9333°N, 112.8167°W)
Time: 22:29:14
(UTC-07:00)
Language:

Hamsat - Orbit

View from above orbital plane
View from above orbital plane
View from above satellite
View from above satellite

Ground track
Ground track

The orbit data is extracted from the following two-line orbital elements,

1 28650U 05017B   15029.60883482  .00002548  00000-0  29094-3 0  9682
2 28650 097.5676 028.4786 0025850 128.1779 232.1772 14.86669626526857
Epoch (UTC): 29 January 2015 14:36:43
Eccentricity: 0.0025850
inclination: 97.5676°
perigee height: 590 km
apogee height: 626 km
right ascension of ascending node: 28.4786°
argument of perigee: 128.1779°
revolutions per day: 14.86669626
mean anomaly at epoch: 232.1772°
orbit number at epoch: 52685

The dashed part of the orbit path shows where the satellite is in the earth's shadow,  

DLR